Date String (YYYY-MM-DD hh:mm:ss) UTC,Instrument flags,absolute air pressure of the measurement (hPa),sample flow rate (lpm),inlet stack bypass flow (lpm),air temperature of the measurement (°C),ambient temperature measured by the external sensor (°C),aerosol sample conditioner tube jacket temperature (°C),OPC LED temperature (°C),internal box temperature (°C),relative humidity of the measurement (%),span deviation,mass concentration of particles derived from Lorenz-Mie calculation of OPC scattering (μg/m³),mass concentration of particles derived from Lorenz-Mie calculation of OPC scattering (μg/m³),mass concentration of particles derived from Lorenz-Mie calculation of OPC scattering (μg/m³)
DateTimeUTC,F1_M11,P_M11,Q1_M11,Q2_M11,T1_M11,T2_M11,T3_M11,T4_M11,T5_M11,U1_M11,ZSPAN_M11,X0_M11,X2_M11,X1_M11
2024-03-30 20:00:00,SystemResetWarning,0821.7,5.00,000.00,023.6,023.0,000.0,031.9,025.4,23.3,0000.8,0012.62,0007.53,0006.96
2024-03-30 20:01:00,SystemResetWarning,0821.6,5.00,000.00,023.6,023.0,000.0,031.9,025.4,22.8,0001.0,0012.92,0007.52,0006.94
2024-03-30 20:02:00,SystemResetWarning,0821.6,5.00,000.00,023.6,023.1,000.0,031.9,025.4,23.1,0001.3,0012.89,0007.49,0006.94
2024-03-30 20:03:00,SystemResetWarning,0821.8,5.00,000.00,023.6,023.1,000.0,031.9,025.5,23.3,0001.5,0012.64,0007.45,0006.92
2024-03-30 20:04:00,SystemResetWarning,0821.8,5.00,000.00,023.6,023.1,000.0,031.9,025.5,23.0,0001.9,0012.27,0007.42,0006.90
2024-03-30 20:05:00,SystemResetWarning,0821.6,5.00,000.00,023.6,023.1,000.0,032.0,025.5,22.9,0001.7,0011.70,0007.36,0006.88
2024-03-30 20:06:00,SystemResetWarning,0821.6,5.00,000.00,023.6,023.1,000.0,032.0,025.5,23.3,0002.1,0011.38,0007.31,0006.86
2024-03-30 20:07:00,SystemResetWarning,0821.6,5.00,000.00,023.6,023.1,000.0,032.0,025.5,23.0,0002.1,0011.36,0007.30,0006.85
2024-03-30 20:08:00,SystemResetWarning,0821.6,5.00,000.00,023.7,023.1,000.0,032.0,025.5,23.2,0002.4,0011.50,0007.30,0006.86
2024-03-30 20:09:00,SystemResetWarning,0821.7,5.00,000.00,023.7,023.1,000.0,032.0,025.5,23.2,0002.3,0011.66,0007.33,0006.87
2024-03-30 20:10:00,SystemResetWarning,0822.0,5.00,000.00,023.7,023.1,000.0,032.0,025.5,23.3,0002.0,0011.48,0007.31,0006.86
2024-03-30 20:11:00,SystemResetWarning,0821.9,5.00,000.00,023.7,023.1,000.0,032.0,025.5,23.4,0001.3,0011.07,0007.35,0006.87
2024-03-30 20:12:00,SystemResetWarning,0821.5,5.00,000.00,023.7,023.1,000.0,032.0,025.5,23.6,0001.2,0011.43,0007.37,0006.88
2024-03-30 20:13:00,SystemResetWarning,0821.5,5.00,000.00,023.7,023.1,000.0,032.1,025.5,23.5,0000.9,0012.15,0007.37,0006.89
2024-03-30 20:14:00,SystemResetWarning,0821.7,5.00,000.00,023.7,023.2,000.0,032.1,025.5,23.9,0000.7,0012.08,0007.39,0006.91
2024-03-30 20:15:00,SystemResetWarning,0822.0,5.00,000.00,023.7,023.2,000.0,032.1,025.5,23.7,0000.6,0012.12,0007.41,0006.94
2024-03-30 20:16:00,SystemResetWarning,0822.0,5.00,000.00,023.7,023.2,000.0,032.1,025.5,23.5,0000.5,0012.17,0007.45,0006.98
2024-03-30 20:17:00,SystemResetWarning,0822.0,5.00,000.00,023.7,023.2,000.0,032.1,025.6,23.5,-000.4,0012.18,0007.47,0007.00
2024-03-30 20:18:00,SystemResetWarning,0822.0,5.00,000.00,023.8,023.2,000.0,032.1,025.6,23.5,-000.3,0012.16,0007.48,0007.02
2024-03-30 20:19:00,SystemResetWarning,0822.0,5.01,000.00,023.8,023.2,000.0,032.1,025.6,23.8,0000.0,0012.44,0007.46,0007.01
2024-03-30 20:20:00,SystemResetWarning,0822.0,5.00,000.00,023.8,023.2,000.0,032.1,025.6,23.8,0000.0,0012.59,0007.46,0007.01
2024-03-30 20:21:00,SystemResetWarning,0822.0,4.99,000.00,023.8,023.2,000.0,032.2,025.6,24.4,0000.0,0012.57,0007.47,0007.01
2024-03-30 20:22:00,SystemResetWarning,0822.0,5.00,000.00,023.8,023.3,000.0,032.2,025.6,23.7,0000.0,0012.64,0007.46,0006.99
2024-03-30 20:23:00,SystemResetWarning,0821.9,4.99,000.00,023.8,023.3,000.0,032.2,025.6,23.4,0000.0,0012.48,0007.44,0006.98
2024-03-30 20:24:00,SystemResetWarning,0822.0,5.00,000.00,023.8,023.3,000.0,032.2,025.6,23.3,-000.8,0011.00,0007.44,0006.97
2024-03-30 20:25:00,SystemResetWarning,0822.0,5.01,000.00,023.8,023.3,000.0,032.2,025.6,22.8,-001.1,0010.82,0007.42,0006.96
2024-03-30 20:26:00,SystemResetWarning,0822.0,5.00,000.00,023.9,023.3,000.0,032.2,025.7,22.6,-000.8,0011.42,0007.41,0006.95
2024-03-30 20:27:00,SystemResetWarning,0821.8,5.00,000.00,023.9,023.3,000.0,032.2,025.7,23.2,-000.8,0011.48,0007.42,0006.93
2024-03-30 20:28:00,SystemResetWarning,0822.0,5.00,000.00,023.9,023.3,000.0,032.2,025.7,23.0,-000.2,0011.86,0007.47,0006.93
2024-03-30 20:29:00,SystemResetWarning,0821.9,5.01,000.00,023.9,023.3,000.0,032.3,025.7,22.5,-000.2,0012.49,0007.48,0006.92
2024-03-30 20:30:00,SystemResetWarning,0821.8,5.01,000.00,023.9,023.3,000.0,032.3,025.7,22.3,-000.4,0012.52,0007.52,0006.92
2024-03-30 20:31:00,SystemResetWarning,0821.9,5.00,000.00,023.9,023.3,000.0,032.3,025.7,22.4,-000.4,0012.14,0007.54,0006.93
2024-03-30 20:32:00,SystemResetWarning,0821.8,5.00,000.00,023.9,023.3,000.0,032.3,025.7,22.3,-000.2,0012.25,0007.57,0006.95
2024-03-30 20:33:00,SystemResetWarning,0821.6,5.00,000.00,023.9,023.3,000.0,032.3,025.7,22.3,0000.2,0012.25,0007.58,0006.98
2024-03-30 20:34:00,SystemResetWarning,0821.6,5.00,000.00,023.9,023.4,000.0,032.3,025.7,22.5,0000.3,0012.53,0007.57,0007.00
2024-03-30 20:35:00,SystemResetWarning,0821.3,4.99,000.00,023.9,023.4,000.0,032.3,025.7,22.3,0000.0,0013.58,0007.57,0007.02
2024-03-30 20:36:00,SystemResetWarning,0821.3,5.00,000.00,024.0,023.4,000.0,032.3,025.8,22.2,0000.2,0014.10,0007.60,0007.03
2024-03-30 20:37:00,SystemResetWarning,0821.3,5.00,000.00,024.0,023.4,000.0,032.3,025.8,22.0,-000.6,0013.50,0007.60,0007.04
2024-03-30 20:38:00,SystemResetWarning,0821.3,5.00,000.00,024.0,023.4,000.0,032.4,025.8,22.8,-000.6,0013.44,0007.61,0007.06
2024-03-30 20:39:00,SystemResetWarning,0821.3,5.00,000.00,024.0,023.4,000.0,032.4,025.8,23.2,-000.5,0013.48,0007.63,0007.10
2024-03-30 20:40:00,SystemResetWarning,0821.3,5.00,000.00,024.0,023.4,000.0,032.4,025.9,23.1,-000.4,0012.94,0007.69,0007.15
2024-03-30 20:41:00,SystemResetWarning,0821.3,5.00,000.00,024.0,023.4,000.0,032.4,025.9,23.1,0000.3,0012.89,0007.74,0007.22
2024-03-30 20:42:00,SystemResetWarning,0821.3,5.01,000.00,024.0,023.4,000.0,032.4,025.9,23.5,0000.8,0013.00,0007.80,0007.29
2024-03-30 20:43:00,SystemResetWarning,0821.3,5.00,000.00,024.0,023.5,000.0,032.4,025.9,23.4,0000.6,0013.74,0007.85,0007.35
2024-03-30 20:44:00,SystemResetWarning,0821.3,5.00,000.00,024.0,023.5,000.0,032.4,025.9,23.2,0000.3,0014.68,0007.90,0007.41
2024-03-30 20:45:00,SystemResetWarning,0821.2,5.00,000.00,024.0,023.5,000.0,032.4,025.9,23.0,-000.0,0014.76,0007.94,0007.45
2024-03-30 20:46:00,SystemResetWarning,0821.2,5.01,000.00,024.1,023.5,000.0,032.4,025.9,23.0,0000.7,0013.74,0008.01,0007.51
2024-03-30 20:47:00,SystemResetWarning,0821.1,5.00,000.00,024.1,023.5,000.0,032.4,025.9,23.1,0000.9,0013.28,0008.08,0007.58
2024-03-30 20:48:00,SystemResetWarning,0821.1,4.99,000.00,024.1,023.5,000.0,032.5,025.9,23.2,0000.9,0013.22,0008.12,0007.63
2024-03-30 20:49:00,SystemResetWarning,0821.0,4.99,000.00,024.1,023.5,000.0,032.5,026.0,23.6,0001.1,0013.24,0008.14,0007.67
2024-03-30 20:50:00,SystemResetWarning,0821.1,4.99,000.00,024.1,023.5,000.0,032.5,026.0,23.1,0001.8,0013.09,0008.14,0007.70
2024-03-30 20:51:00,SystemResetWarning,0821.1,5.00,000.00,024.1,023.6,000.0,032.5,026.0,23.1,0001.0,0013.39,0008.16,0007.73
2024-03-30 20:52:00,SystemResetWarning,0821.1,5.00,000.00,024.1,023.6,000.0,032.5,026.0,23.4,0000.1,0013.42,0008.17,0007.74
2024-03-30 20:53:00,SystemResetWarning,0821.1,5.02,000.00,024.1,023.6,000.0,032.5,026.0,23.2,-000.1,0013.56,0008.17,0007.74
2024-03-30 20:54:00,SystemResetWarning,0821.0,4.99,000.00,024.1,023.6,000.0,032.5,026.0,22.9,0000.4,0013.20,0008.19,0007.74
2024-03-30 20:55:00,SystemResetWarning,0821.1,5.00,000.00,024.2,023.6,000.0,032.5,026.0,22.5,0001.0,0012.30,0008.20,0007.73
2024-03-30 20:56:00,SystemResetWarning,0821.1,4.99,000.00,024.2,023.6,000.0,032.5,026.0,22.5,0001.1,0012.04,0008.26,0007.76
2024-03-30 20:57:00,SystemResetWarning,0821.1,5.00,000.00,024.2,023.6,000.0,032.6,026.0,22.6,0000.7,0012.07,0008.26,0007.77
2024-03-30 20:58:00,SystemResetWarning,0821.0,5.00,000.00,024.2,023.6,000.0,032.6,026.1,23.1,0000.5,0012.42,0008.25,0007.76
2024-03-30 20:59:00,SystemResetWarning,0821.0,5.00,000.00,024.2,023.6,000.0,032.6,026.1,22.3,0000.4,0012.67,0008.29,0007.78
